Other Surface Observations
Issued by NWS

Home | Current Version | Previous Version | Text Only | Print | Product List | Glossary On
Versions: 1 2 3 4 5 6 7 8 9 10 11 12 13 14 15 16 17 18 19 20 21 22 23 24 25 26 27 28 29 30 31 32 33 34 35 36 37 38 39 40 41 42 43 44 45 46 47 48 49 50
000
SXUS52 KTAE 191305
OSOTAE
OSOTAE
North Florida/South Alabama/Southwest Georgia Weather Roundup
National Weather Service Tallahassee Florida
800 AM EST FRI DEC 19 2014

Note: "fair" indicates few or no clouds below 12,000 feet with no
significant weather and/or obstructions to visibility.

!FLZ017-115-028-034-025-191400
...North Florida...

CITY           SKY/WX    TMP DP  RH WIND       PRES   REMARKS
TALLAHASSEE    MOCLDY    48  38  68 CALM      30.15R
APALACHICOLA   MOCLDY    51  40  65 NE8       30.14R
PERRY          MOCLDY    44  43  97 CALM      30.15R
CROSS CITY       N/A     46  44  93 CALM      30.15R
JACKSONVILLE   MOCLDY    44  43  96 CALM      30.14R
$$

!FLZ112-006-005-002-011-191400
...Florida Panhandle...

CITY           SKY/WX    TMP DP  RH WIND       PRES   REMARKS
MARIANNA       CLOUDY    49  41  74 E3        30.15S
BONIFAY        PTSUNNY   49  41  74 N3        30.16R
PANAMA CITY NW CLOUDY    49  40  71 N5        30.13R
TYNDALL AFB    PTCLDY    49  39  67 E7        30.14S
TYND DRONE APT NOT AVBL
DE FUNIAK SPR  FAIR      50  36  57 NE8       30.14R
EGLIN AFB      MOCLDY    53  37  54 E6        30.11F
DESTIN         CLOUDY    55  39  54 NE5       30.13S
HURLBURT       CLOUDY    53  34  47 NE3       30.11F
CRESTVIEW      CLOUDY    50  38  63 CALM      30.15R
PENSACOLA      CLOUDY    53  38  56 NE6       30.14R
$$

!ALZ063-066-191400
...South Alabama...

CITY           SKY/WX    TMP DP  RH WIND       PRES   REMARKS
DOTHAN         CLOUDY    47  35  63 NE7       30.18R WCI  44
OZARK CAIRNS   CLOUDY    48  35  59 NE2       30.15R
FT RUCKER HELI CLOUDY    48  35  60 CALM      30.14S
RUCKER HELI 3  MOCLDY    47  35  62 NE3       30.17R
RUCKER HELI 2  FAIR      48  34  58 E3        30.15R
FLORALA APT    CLOUDY    49  38  65 NE6       30.15S
ANDALUSIA      CLOUDY    51  35  54 CALM      30.15R
TROY           CLOUDY    41  35  79 CALM      30.16S
EUFALA         FAIR      43  35  73 CALM      30.15S
MOBILE         LGT RAIN  51  42  71 NE14      30.13R
$$

!GAZ120>161-191400
...Southwest and South Central Georgia...

CITY           SKY/WX    TMP DP  RH WIND       PRES   REMARKS
THOMASVILLE    MOCLDY    46  39  76 N5        30.16S WCI  44
BAINBRIDGE     CLOUDY    50  43  76 CALM      30.17R
MOODY AFB      CLOUDY    48  39  71 N5        30.15R
VALDOSTA       MOCLDY    45  40  82 N3        30.15R
MOULTRIE       FAIR      46  37  71 CALM      30.16R
BLAKELY        CLOUDY    46  39  76 CALM      30.17R
ALBANY         CLEAR     40  37  89 CALM      30.18R
TIFTON         MOCLDY    47  34  61 CALM      30.15R
FITZGERALD     FAIR      46  33  59 N3        30.17S
CORDELE        FAIR      37  35  91 CALM      30.17S
AMERICUS       FAIR      41  34  75 N3        30.18R
HOMERVILLE     MOCLDY    45  43  93 CALM      30.15R
$$

!GMZ750-755-770-775-191400
...Coastal and Buoy Obs...

STATION/POSITION TIME  TEMP    WIND        PRES    VSBY  WAVE
                       AIR SEA DIR/SP/G                  HT/PER
                 (UTC) (F)     (DEG/KT/KT) (MB)    (MI)  (FT/S)
KEATON BEACH     1300   48      40/  4/  6 1020.9R
CEDAR KEY        1200   52     350/  4/  5 1020.7R
C TOWER          1300   59      40/ 13/ 14 1020.4R
APALACHICOLA BUO 1200   65 71   60/  6/  8 1019.6R         1/ 3
PANAMA CITY BUOY NOT AVBL
MOBILE BUOY      1300   69 75   90/ 16/ 21 1018.1R         2/ 4
ORANGE BCH AL BU 1200   59 67   40/ 17/ 21 1018.7R         2/ 4
$$



USA.gov is the U.S. government's official web portal to all federal, state and local government web resources and services.